Terminal Aerodrome Forecast
Issued by NWS Omaha/Valley, NE

Home | Current Version | Previous Version | Text Only | Print | Product List | Glossary On
Versions: 1 2 3 4 5 6 7 8 9 10 11 12 13 14 15 16 17 18 19 20 21 22 23 24 25 26 27 28 29 30 31 32 33 34 35 36
000
FTUS43 KOAX 032009 AAA
TAFOMA
TAF AMD
KOMA 032009Z 0320/0418 33020G30KT P6SM BKN025
      TEMPO 0320/0322 SCT025
     FM032200 34018G28KT P6SM SCT040
     FM040100 34015G23KT P6SM SCT040
     FM040600 34013KT P6SM BKN040 BKN250
     FM041200 34006KT P6SM BKN250=

USA.gov is the U.S. government's official web portal to all federal, state and local government web resources and services.